TimePST,TemperatureF,Dew PointF,Humidity,Sea Level PressureIn,VisibilityMPH,Wind Direction,Wind SpeedMPH,Gust SpeedMPH,PrecipitationIn,Events,Conditions,WindDirDegrees,DateUTC
12:56 AM,46.9,37.9,71,30.27,10.0,SSE,6.9,-,N/A,,Clear,150,2013-03-02 08:56:00
1:56 AM,46.0,39.0,76,30.24,10.0,SSE,8.1,-,N/A,,Clear,150,2013-03-02 09:56:00
2:56 AM,45.0,39.9,82,30.22,10.0,SE,8.1,-,N/A,,Clear,140,2013-03-02 10:56:00
3:56 AM,45.0,39.9,82,30.20,10.0,SE,5.8,-,N/A,,Clear,140,2013-03-02 11:56:00
4:56 AM,45.0,39.0,80,30.20,10.0,SE,10.4,-,N/A,,Clear,140,2013-03-02 12:56:00
5:56 AM,45.0,39.9,82,30.20,10.0,SSE,4.6,-,N/A,,Clear,150,2013-03-02 13:56:00
6:56 AM,44.1,39.9,85,30.19,10.0,SSE,4.6,-,N/A,,Clear,160,2013-03-02 14:56:00
7:56 AM,45.0,39.9,82,30.18,10.0,South,6.9,-,N/A,,Clear,170,2013-03-02 15:56:00
8:56 AM,46.0,39.9,79,30.18,10.0,South,4.6,-,N/A,,Mostly Cloudy,180,2013-03-02 16:56:00
9:56 AM,46.9,39.0,74,30.18,10.0,SSW,4.6,-,N/A,,Overcast,210,2013-03-02 17:56:00
10:56 AM,46.9,39.0,74,30.18,10.0,WSW,4.6,-,N/A,,Overcast,250,2013-03-02 18:56:00
11:56 AM,46.0,39.9,79,30.19,10.0,South,3.5,-,N/A,,Overcast,190,2013-03-02 19:56:00
12:56 PM,46.0,37.9,73,30.18,10.0,Calm,Calm,-,N/A,,Overcast,0,2013-03-02 20:56:00
1:56 PM,46.0,36.0,68,30.17,10.0,NW,4.6,-,N/A,,Overcast,310,2013-03-02 21:56:00
2:29 PM,42.8,39.2,87,30.18,10.0,NNW,8.1,-,N/A,,Overcast,330,2013-03-02 22:29:00
2:56 PM,42.1,39.9,92,30.17,1.5,NNW,8.1,-,N/A,,Overcast,340,2013-03-02 22:56:00
3:02 PM,42.8,39.2,87,30.17,0.8,NNW,6.9,-,0.00,Rain,Light Rain,330,2013-03-02 23:02:00
3:30 PM,42.8,41.0,93,30.17,0.2,NNW,8.1,-,0.00,Fog,Fog,340,2013-03-02 23:30:00
3:56 PM,43.0,41.0,93,30.17,0.2,Calm,Calm,-,0.00,Fog,Fog,0,2013-03-02 23:56:00
4:56 PM,43.0,41.0,93,30.17,0.2,Variable,3.5,-,0.00,Fog,Fog,0,2013-03-03 00:56:00
5:56 PM,39.9,39.9,100,30.18,0.2,NNW,4.6,-,0.00,Fog,Fog,330,2013-03-03 01:56:00
6:56 PM,39.9,39.0,97,30.18,0.2,Calm,Calm,-,0.00,Fog-Rain,Light Rain,0,2013-03-03 02:56:00
7:56 PM,39.0,37.9,96,30.18,0.2,Variable,3.5,-,0.01,Fog-Rain,Light Rain,0,2013-03-03 03:56:00
8:10 PM,37.4,37.4,100,30.17,0.2,NNW,4.6,-,0.00,Fog-Rain,Light Rain,340,2013-03-03 04:10:00
8:19 PM,37.4,37.4,100,30.17,0.2,NNW,3.5,-,0.00,Fog-Rain,Light Rain,340,2013-03-03 04:19:00
8:40 PM,37.4,35.6,93,30.16,1.0,North,5.8,-,0.00,,Overcast,10,2013-03-03 04:40:00
8:42 PM,37.4,33.8,87,30.16,2.0,North,5.8,-,0.00,,Overcast,10,2013-03-03 04:42:00
8:56 PM,37.9,34.0,86,30.17,10.0,SSW,6.9,-,0.00,,Overcast,200,2013-03-03 04:56:00
9:56 PM,37.9,34.0,86,30.16,10.0,Calm,Calm,-,N/A,,Partly Cloudy,0,2013-03-03 05:56:00
10:09 PM,37.4,37.4,100,30.15,1.0,NW,3.5,-,N/A,,Mostly Cloudy,320,2013-03-03 06:09:00
10:12 PM,37.4,37.4,100,30.15,0.2,NNW,3.5,-,N/A,Fog,Fog,330,2013-03-03 06:12:00
10:25 PM,37.4,37.4,100,30.15,0.2,Calm,Calm,-,N/A,Fog,Fog,0,2013-03-03 06:25:00
10:35 PM,37.4,37.4,100,30.16,1.2,Calm,Calm,-,N/A,,Overcast,0,2013-03-03 06:35:00
10:37 PM,37.4,37.4,100,30.16,2.0,Calm,Calm,-,N/A,,Overcast,0,2013-03-03 06:37:00
10:39 PM,37.4,37.4,100,30.16,1.2,Calm,Calm,-,N/A,,Overcast,0,2013-03-03 06:39:00
10:44 PM,37.4,37.4,100,30.16,0.5,Calm,Calm,-,N/A,Fog,Fog,0,2013-03-03 06:44:00
10:54 PM,37.4,37.4,100,30.15,0.2,Calm,Calm,-,N/A,Fog,Fog,0,2013-03-03 06:54:00
10:56 PM,37.9,37.0,97,30.16,0.2,Calm,Calm,-,N/A,Fog,Fog,0,2013-03-03 06:56:00
11:56 PM,37.9,37.0,97,30.16,0.2,Calm,Calm,-,0.00,Fog,Fog,0,2013-03-03 07:56:00